Tracking 28052 objects as of 24-Sep-2023
HD Live streaming from Space Station
objects crossing your sky now

THORAD DELTA 1 DEB

Track THORAD DELTA 1 DEB now!
10-day predictions


NORAD ID: 8184
Int'l Code: 1974-089BA
Perigee: 1,432.2 km
Apogee: 1,531.6 km
Inclination: 101.4 °
Period: 115.4 minutes
Semi major axis: 7852 km
RCS: 0.8469 m2 (medium)
Launch date: November 15, 1974
Source: United States (US)
Launch site: AIR FORCE WESTERN TEST RANGE (AFWTR)

Note: This is SATELLITE DEBRIS
Your satellite tracking list
Your tracking list is empty




NASA's NSSDC Master Catalog

Two Line Element Set (TLE):
1 08184U 74089BA  23267.61879392  .00000004  00000-0  31058-3 0  9998
2 08184 101.4066 256.3349 0063287 236.2533 236.0824 12.47540144224637
Source of the keplerian elements: AFSPC